Tracking 22438 objects as of 24-Feb-2021
HD Live streaming from Space Station
objects crossing your sky now

COSMOS 1375 DEB

Track COSMOS 1375 DEB now!
10-day predictions


NORAD ID: 17797
Int'l Code: 1982-055AP
Perigee: 942.4 km
Apogee: 946.6 km
Inclination: 65.8 °
Period: 103.8 minutes
Semi major axis: 7315 km
RCS: 0.0324 m2 (small)
Launch date: June 6, 1982
Source: Commonwealth of Independent States (former USSR) (CIS)
Launch site: PLESETSK MISSILE AND SPACE COMPLEX (PKMTR)

Note: This is SATELLITE DEBRIS
aabbcc
Your satellite tracking list
Your tracking list is empty




NASA's NSSDC Master Catalog

Two Line Element Set (TLE):
1 17797U 82055AP  21055.06521242  .00000116  00000-0  16878-3 0  9997
2 17797  65.8282 160.7531 0002901 177.3964 356.3540 13.87509763782738
Source of the keplerian elements: AFSPC